Temperature
10 10 10 9 9 9 8 8 8 8 8 8 8 8 8 8 8 8 8 8 8 8 8 8 8 8 8 8 8 8 7 7 7 7 7 7 7 7 7 7 7 7 7
10 10 9 9 9 8 8 8 8 8 7 7 7 7 7 7 7 7 7 7 7 7 7 7 8 7 7 7 7 7 7 7 7 7 6 6 6 7 7 7 7 7 7
10 9 9 8 8 8 8 8 8 7 7 7 7 7 7 7 7 7 7 7 7 7 7 7 7 7 7 7 7 7 7 7 6 6 6 6 6 6 6 6 6 6 6
9 9 8 8 8 8 7 7 7 7 7 7 7 7 6 6 6 6 6 6 6 6 6 6 6 6 6 6 6 6 6 6 6 6 6 6 6 6 5 5 6 5 5
9 8 8 8 7 7 7 7 7 7 7 6 6 6 6 6 6 6 6 6 6 6 6 6 6 6 6 6 6 6 6 6 6 6 6 5 5 5 5 4 5 5 5
8 8 8 7 7 7 7 6 6 6 6 6 6 6 6 6 5 5 5 5 5 5 5 5 5 5 5 5 5 6 5 5 5 5 5 5 5 4 4 4 4 4 4
8 8 7 7 7 6 6 6 6 6 6 6 6 5 5 5 5 5 5 5 5 5 5 5 5 5 5 5 5 5 5 5 5 5 5 4 4 4 4 4 3 3 4
8 8 7 7 6 6 6 5 5 5 5 5 5 5 5 5 5 5 5 5 5 5 5 4 4 4 4 4 4 4 4 4 4 4 4 4 4 4 3 3 3 3 3
8 7 7 6 6 6 5 5 5 5 5 5 5 5 5 4 4 4 4 4 4 4 4 4 4 4 4 4 4 4 4 4 4 4 4 3 3 3 3 3 3 2 2
7 7 7 6 6 5 5 5 5 4 4 4 4 4 4 4 4 4 4 4 4 3 3 3 3 3 3 3 3 3 3 3 3 3 3 3 3 3 3 2 2 2 2
6 6 6 6 5 5 5 4 4 4 4 4 4 4 4 4 3 3 3 3 3 3 3 3 3 3 3 3 3 3 3 3 3 3 3 3 2 2 2 2 2 2 2
6 6 5 5 5 4 4 4 4 4 4 3 3 3 3 3 3 3 3 3 3 3 3 3 2 3 3 3 3 3 3 2 2 2 2 2 2 2 2 2 2 2 1
5 5 5 4 4 4 4 4 4 3 3 3 3 3 3 3 3 2 2 2 2 3 3 2 2 2 2 2 2 2 2 2 2 2 2 2 1 1 1 1 1 1 1
4 4 4 4 3 3 3 3 3 3 3 3 3 2 2 2 2 2 2 2 2 2 2 2 2 2 2 2 2 2 2 2 2 1 1 1 1 1 1 1 1 1 1
4 3 3 3 3 3 3 3 3 3 3 2 2 2 2 2 2 2 2 2 2 2 2 2 1 1 1 2 2 2 1 1 1 1 1 1 1 1 1 1 1 1 0
3 3 3 3 2 2 2 2 2 2 2 2 2 2 1 1 1 1 1 1 1 1 1 1 1 1 1 1 1 1 1 1 1 1 1 1 1 0 0 0 0 0 0
3 2 2 2 2 2 2 2 2 2 1 1 1 1 1 1 1 1 1 1 1 1 1 1 1 1 1 1 1 1 1 1 0 0 0 0 0 0 0 0 0 -0 -0
2 2 2 2 2 2 2 2 1 1 1 1 1 1 1 1 1 0 0 0 0 0 0 0 0 0 0 0 0 0 0 0 -0 -0 0 0 0 -0 -0 -0 -0 -0 -1
2 1 1 1 1 1 1 1 1 1 1 0 0 0 0 0 0 -0 -0 -0 -0 -0 -0 -0 -0 -0 -0 -0 -0 -0 -0 -0 -0 -0 -0 -0 -0 -0 -1 -1 -1 -1 -1
1 1 1 1 1 1 1 1 1 0 0 0 -0 -0 -0 -0 -0 -1 -1 -1 -1 -0 -0 -1 -1 -1 -1 -1 -1 -1 -1 -1 -0 -1 -1 -1 -1 -1 -1 -1 -1 -1 -1
0 0 0 0 0 -0 -0 -0 -0 -0 -0 -0 -0 -1 -1 -1 -1 -1 -1 -1 -1 -1 -1 -1 -1 -1 -1 -1 -1 -1 -1 -1 -1 -1 -1 -1 -1 -1 -1 -1 -1 -2 -2
-0 -0 -0 -0 -0 -1 -1 -1 -1 -1 -1 -1 -1 -1 -1 -1 -1 -1 -2 -1 -1 -1 -1 -2 -2 -2 -2 -2 -1 -1 -1 -1 -1 -1 -1 -2 -2 -2 -2 -2 -2 -2 -2
-1 -1 -1 -1 -1 -1 -1 -1 -1 -1 -1 -1 -1 -1 -2 -2 -2 -2 -2 -2 -2 -2 -2 -2 -2 -2 -2 -2 -2 -2 -2 -2 -2 -2 -2 -2 -2 -2 -2 -2 -3 -3 -3
-2 -2 -2 -2 -2 -2 -2 -2 -2 -2 -2 -2 -2 -2 -2 -2 -2 -2 -2 -2 -2 -2 -2 -2 -3 -3 -3 -3 -3 -2 -2 -2 -2 -3 -3 -3 -3 -3 -3 -3 -3 -3 -3
-2 -2 -2 -2 -2 -2 -2 -2 -2 -2 -2 -2 -2 -2 -3 -3 -3 -3 -3 -3 -3 -3 -3 -3 -3 -3 -3 -3 -3 -3 -3 -3 -3 -3 -3 -3 -3 -3 -3 -3 -4 -4 -4
-2 -2 -2 -3 -2 -2 -2 -2 -2 -3 -3 -3 -3 -3 -3 -3 -3 -3 -3 -3 -3 -3 -3 -3 -3 -3 -3 -3 -3 -3 -3 -3 -3 -3 -3 -4 -4 -4 -4 -4 -4 -4 -4
Wind_Speed
2 3 3 4 4 4 3 4 4 3 3 2 2 2 2 1 1 2 2 1 1 2 2 1 1 1 1 1 1 1 1 1 1 1 1 2 2 1 1 1 1 1 1
2 3 4 4 3 4 4 4 4 4 3 3 2 2 2 2 2 2 2 2 2 2 2 2 1 1 1 1 1 1 1 0 0 1 0 1 2 1 1 0 1 0 0
3 4 4 4 4 3 4 4 5 4 3 3 2 2 1 1 1 2 2 2 2 2 2 2 1 1 1 1 1 1 1 1 1 1 2 1 1 2 1 1 1 1 1
2 3 3 4 4 4 3 3 3 4 3 4 4 4 3 2 2 2 2 2 2 2 2 2 1 2 1 1 2 2 1 2 2 1 1 1 1 0 2 2 2 1 2
3 3 3 3 3 3 3 3 4 4 4 4 4 4 3 2 2 2 2 2 2 2 2 2 2 1 1 2 2 2 1 1 2 1 1 1 1 1 1 3 2 2 3
3 3 2 2 2 3 3 3 4 4 4 4 4 5 5 4 3 3 3 3 2 2 2 2 2 2 2 2 2 3 3 2 2 1 1 1 1 1 1 2 3 3 3
2 2 3 2 2 3 3 3 4 4 4 4 4 4 4 4 5 4 4 3 2 2 3 2 2 2 2 3 2 2 3 3 3 3 3 2 2 1 1 2 2 3 2
3 2 3 3 3 3 3 3 4 4 4 4 4 4 4 4 3 4 4 4 3 3 3 3 2 2 2 2 2 2 3 3 3 3 3 2 2 1 2 2 1 2 2
1 2 2 3 3 3 3 3 3 3 4 4 4 4 4 3 4 4 3 3 3 3 4 4 3 2 2 2 2 2 2 2 3 3 3 3 3 2 2 2 2 2 3
1 1 1 2 3 3 3 3 3 4 3 4 3 3 3 3 3 3 4 4 3 3 4 4 4 4 3 3 3 3 3 2 3 3 4 4 3 3 2 3 2 3 3
1 1 1 0 1 2 3 2 3 3 3 3 3 3 3 3 3 3 4 3 3 3 4 4 4 4 4 4 4 4 4 4 4 4 4 4 4 3 3 3 3 3 3
2 1 1 1 1 1 2 3 3 3 3 3 3 3 3 2 3 3 3 3 3 3 3 3 4 4 4 4 5 5 5 5 4 4 4 4 3 4 3 3 3 4 3
3 2 1 1 1 1 1 2 2 2 2 2 2 3 3 3 3 3 3 3 3 3 3 3 4 4 4 4 4 5 5 5 5 5 5 4 4 4 3 3 3 3 3
3 3 2 2 2 1 1 1 1 1 1 2 2 3 3 3 3 3 4 4 4 4 4 4 4 4 3 4 3 4 4 4 4 5 5 5 5 5 5 4 4 3 3
3 3 3 3 2 2 2 1 1 0 0 1 2 2 2 2 3 3 3 3 3 4 4 4 3 3 3 3 3 3 4 4 4 4 4 5 5 6 5 4 3 3 3
4 3 3 3 2 2 2 1 1 1 0 1 2 2 1 2 2 2 2 2 3 3 3 4 4 4 3 4 4 4 4 4 4 4 4 4 5 5 7 7 6 5 4
3 3 3 3 2 2 2 1 1 1 0 1 1 1 1 1 2 2 2 3 3 3 3 3 3 3 4 4 5 5 4 5 5 5 4 3 4 4 4 5 6 6 7
3 4 3 3 2 2 1 1 0 0 1 1 1 1 1 1 1 1 2 2 2 3 3 3 3 3 4 5 5 4 3 4 4 5 5 4 4 4 3 3 3 3 4
3 3 2 2 2 2 1 0 1 1 1 1 2 2 1 1 1 1 1 1 1 2 2 3 3 3 3 5 4 4 3 3 3 3 3 4 4 5 4 3 2 3 3
2 2 2 1 1 1 0 0 1 1 1 2 2 2 1 1 1 1 1 1 1 2 1 1 1 2 3 3 3 3 2 2 2 2 3 4 4 5 4 3 3 3 3
3 2 1 1 2 1 0 1 1 1 1 2 2 2 1 1 1 0 0 1 1 1 1 1 1 1 2 2 2 2 2 2 2 2 2 2 4 4 4 3 3 3 2
4 3 1 1 2 1 0 1 2 2 1 1 2 2 2 1 0 1 0 0 1 1 1 1 0 1 1 1 2 2 2 2 2 2 2 2 3 3 3 2 2 2 2
3 3 2 2 2 1 1 2 2 1 1 1 2 2 2 1 1 1 1 0 1 1 1 1 1 1 0 1 1 2 2 2 1 1 2 2 3 2 1 2 2 1 1
3 3 2 2 3 2 1 2 1 0 0 1 1 1 1 1 1 0 0 0 1 1 1 1 1 1 1 1 1 1 0 0 1 0 0 1 2 1 1 1 0 0 1
3 2 2 2 3 2 2 2 1 0 1 1 1 1 1 1 1 0 0 1 1 2 2 2 2 2 2 2 2 1 1 1 1 0 0 0 0 0 0 0 0 1 0
3 2 2 3 3 2 2 2 1 1 1 2 2 1 1 1 1 1 1 2 1 2 2 2 2 2 3 3 3 3 2 2 2 1 1 1 1 1 1 1 0 0 0
Wind_Direction
164 154 156 147 144 148 154 162 158 161 160 163 163 168 169 164 167 133 140 135 126 121 112 121 119 126 165 187 167 141 128 17 15 30 338 309 282 169 154 108 96 109 117
167 163 154 149 154 159 167 177 173 176 175 177 179 182 177 186 185 152 151 165 154 133 133 132 157 170 162 172 160 151 165 295 97 108 94 313 314 309 264 184 180 152 71
181 170 167 160 159 165 179 189 182 182 180 161 160 160 139 142 177 192 191 162 158 148 142 149 156 161 163 198 191 189 181 202 231 153 141 161 238 303 278 257 237 232 280
169 162 168 169 172 175 178 185 183 182 184 172 173 172 181 203 223 204 202 183 162 155 153 158 169 174 174 194 208 194 210 179 205 237 223 204 182 180 295 288 265 279 288
173 167 169 177 174 169 178 188 185 190 190 184 184 182 188 202 205 193 193 206 177 161 167 173 174 188 181 184 204 194 205 202 195 202 221 248 285 239 228 268 277 293 278
183 164 164 162 164 168 181 192 192 196 192 186 186 188 191 187 191 204 206 208 208 200 186 194 199 200 191 190 202 201 200 212 211 218 218 203 208 239 246 263 266 274 281
178 174 179 184 187 185 192 201 197 198 192 188 194 196 196 191 198 205 206 204 210 225 219 211 207 209 206 190 181 206 208 205 210 219 229 233 229 224 237 247 269 286 289
182 192 191 192 196 198 196 200 196 197 195 195 199 199 199 199 205 208 206 209 213 216 209 211 214 216 221 210 191 210 221 201 209 228 229 243 247 237 228 216 238 282 283
199 212 203 193 192 197 204 207 206 202 201 204 203 200 203 206 207 207 208 214 218 217 199 204 214 217 216 218 210 214 225 215 209 220 227 233 248 234 223 214 204 215 257
324 266 209 183 191 197 203 204 214 212 209 211 207 209 204 215 215 205 208 213 216 213 209 210 211 214 217 215 214 223 217 226 227 219 226 233 240 236 224 222 230 229 241
334 335 339 320 190 187 193 211 213 212 211 211 205 200 209 217 213 212 212 212 215 210 213 215 211 214 220 219 212 218 214 223 239 230 223 232 235 235 230 224 224 233 237
351 341 338 347 312 238 207 213 218 209 207 212 206 207 210 208 213 213 215 213 217 216 214 217 217 217 220 220 213 217 219 221 234 234 225 234 239 244 238 229 232 238 242
355 350 349 329 316 306 277 229 213 204 205 207 209 212 207 208 219 216 215 215 217 218 212 214 219 222 221 221 220 217 220 225 236 234 224 231 234 242 245 239 235 241 256
340 341 340 323 308 291 292 284 244 200 201 203 206 219 216 213 224 216 213 217 214 209 209 216 225 226 229 229 224 221 222 229 237 238 225 226 230 233 238 239 236 239 248
325 326 321 307 304 306 299 300 294 201 195 218 222 232 233 227 229 214 214 212 213 211 207 210 220 225 226 225 220 226 228 230 234 239 230 228 234 237 239 245 235 231 238
304 311 312 303 285 280 273 284 282 270 212 246 247 237 230 239 243 218 205 206 214 209 202 208 213 220 230 228 228 228 231 233 231 235 231 232 233 242 254 258 254 241 233
296 299 295 285 275 268 258 247 273 316 279 257 274 249 228 244 265 235 207 210 206 202 206 208 208 220 229 226 237 242 231 230 225 227 225 241 247 248 242 251 255 255 250
290 289 286 289 286 290 292 280 272 292 299 289 287 270 245 251 267 249 221 214 197 198 201 203 208 216 230 230 240 251 242 232 226 228 224 221 226 239 240 244 249 251 258
280 278 275 281 292 290 280 293 299 292 295 292 301 299 262 243 250 250 239 230 200 198 202 205 206 215 229 235 240 246 229 228 234 238 231 221 219 242 248 233 242 268 272
313 305 303 308 309 296 290 282 290 300 296 302 304 305 285 239 228 237 258 262 204 195 190 214 216 218 225 237 243 240 214 220 233 242 244 235 238 243 244 221 218 244 261
317 316 307 305 294 286 190 255 288 282 296 321 323 325 311 256 227 219 235 228 198 180 185 197 240 235 230 231 243 252 220 218 225 230 239 241 253 253 253 249 224 243 255
320 326 313 298 306 298 205 275 285 294 330 344 338 333 330 328 331 145 172 212 186 185 194 190 268 264 250 237 238 263 266 258 221 226 231 232 244 265 279 275 249 260 276
305 309 294 301 308 297 233 244 271 299 6 353 332 329 336 341 343 126 150 183 172 184 208 185 211 254 254 253 271 279 281 295 302 221 232 253 254 261 265 250 253 263 216
292 295 293 288 293 296 284 258 273 276 290 292 298 308 321 327 352 30 115 193 197 192 207 218 223 237 256 246 244 262 263 312 317 38 184 275 276 274 249 247 259 191 202
290 290 273 270 280 295 290 282 270 244 251 266 279 286 284 268 258 336 323 261 240 211 207 218 213 218 240 251 258 255 231 207 213 142 115 122 164 131 111 104 154 153 171
285 289 277 269 274 275 279 281 260 221 223 252 266 267 265 261 233 223 322 344 293 277 262 248 243 251 262 275 270 264 265 277 257 198 188 206 219 228 231 248 264 228 247
Height
1493 1495 1496 1496 1497 1498 1499 1500 1500 1501 1502 1502 1503 1504 1505 1506 1507 1508 1509 1510 1511 1512 1512 1513 1514 1515 1515 1516 1516 1517 1518 1518 1519 1519 1520 1520 1520 1520 1521 1521 1521 1521 1521
1491 1492 1493 1493 1494 1494 1495 1497 1497 1498 1499 1500 1501 1501 1502 1503 1504 1505 1506 1507 1508 1509 1510 1510 1511 1512 1512 1513 1513 1514 1515 1516 1517 1517 1517 1518 1519 1518 1519 1519 1519 1519 1519
1488 1489 1490 1490 1491 1491 1492 1493 1494 1495 1496 1497 1498 1499 1500 1500 1501 1502 1503 1504 1505 1506 1506 1507 1508 1508 1509 1510 1510 1511 1512 1513 1514 1515 1516 1516 1516 1516 1516 1516 1516 1516 1516
1485 1486 1487 1487 1488 1488 1489 1490 1491 1492 1493 1494 1494 1495 1495 1496 1497 1499 1500 1501 1502 1502 1503 1504 1505 1505 1506 1507 1508 1508 1509 1510 1511 1512 1513 1514 1514 1514 1513 1514 1514 1514 1514
1483 1483 1484 1485 1485 1485 1486 1486 1487 1488 1489 1490 1491 1491 1492 1493 1495 1496 1497 1497 1498 1499 1499 1500 1501 1502 1502 1503 1504 1505 1506 1507 1507 1508 1509 1510 1511 1511 1511 1509 1510 1510 1511
1480 1481 1481 1482 1482 1482 1483 1483 1484 1484 1485 1486 1487 1488 1488 1489 1490 1492 1492 1493 1494 1495 1495 1496 1497 1498 1499 1500 1501 1501 1502 1503 1504 1505 1506 1506 1507 1507 1507 1506 1506 1506 1506
1477 1478 1478 1478 1478 1479 1479 1480 1480 1481 1481 1482 1483 1484 1485 1486 1487 1487 1488 1489 1489 1490 1491 1493 1493 1494 1495 1496 1497 1498 1498 1499 1500 1501 1502 1503 1504 1504 1505 1504 1503 1503 1502
1474 1475 1475 1475 1476 1476 1476 1476 1477 1477 1478 1478 1479 1480 1482 1482 1483 1484 1484 1485 1485 1486 1488 1489 1490 1490 1491 1493 1493 1494 1495 1496 1496 1497 1498 1499 1500 1501 1501 1501 1501 1499 1499
1472 1473 1473 1473 1473 1473 1473 1473 1473 1474 1474 1475 1476 1477 1477 1478 1479 1479 1480 1481 1482 1483 1484 1485 1485 1486 1487 1489 1490 1490 1491 1492 1492 1493 1494 1495 1496 1496 1497 1497 1498 1498 1496
1470 1470 1470 1470 1470 1470 1470 1470 1471 1471 1471 1472 1473 1473 1474 1474 1475 1475 1476 1476 1477 1478 1479 1480 1481 1482 1483 1485 1486 1486 1487 1488 1488 1489 1490 1491 1491 1492 1493 1493 1493 1494 1493
1468 1468 1468 1468 1468 1467 1467 1467 1467 1468 1468 1469 1469 1469 1469 1470 1471 1471 1472 1472 1473 1474 1475 1476 1477 1478 1479 1480 1482 1483 1483 1484 1484 1485 1486 1486 1487 1487 1488 1489 1489 1489 1489
1467 1466 1466 1465 1465 1465 1465 1464 1464 1465 1465 1465 1465 1465 1465 1466 1466 1467 1468 1469 1469 1470 1471 1472 1473 1473 1475 1476 1477 1478 1479 1480 1480 1481 1481 1482 1483 1483 1484 1484 1485 1485 1485
1465 1464 1463 1463 1462 1462 1462 1462 1462 1462 1462 1462 1462 1461 1462 1462 1462 1462 1463 1464 1465 1466 1467 1468 1468 1469 1470 1472 1473 1474 1474 1475 1476 1476 1477 1478 1478 1479 1479 1480 1480 1480 1481
1463 1462 1461 1460 1460 1460 1459 1459 1459 1459 1459 1459 1458 1458 1458 1458 1458 1458 1459 1459 1460 1461 1462 1463 1464 1465 1466 1467 1468 1469 1470 1471 1472 1472 1473 1473 1474 1475 1475 1476 1476 1476 1476
1461 1460 1459 1458 1458 1457 1457 1456 1456 1456 1456 1455 1455 1454 1454 1454 1454 1454 1454 1455 1456 1457 1458 1459 1460 1461 1462 1463 1464 1465 1465 1466 1467 1468 1468 1469 1470 1471 1472 1472 1472 1472 1472
1460 1458 1457 1456 1455 1455 1454 1454 1453 1453 1453 1452 1451 1451 1450 1450 1450 1450 1450 1451 1452 1453 1454 1455 1456 1457 1458 1458 1459 1460 1461 1462 1462 1463 1464 1465 1466 1467 1467 1468 1468 1468 1468
1457 1456 1455 1454 1453 1452 1451 1451 1450 1450 1449 1449 1448 1448 1447 1446 1446 1446 1447 1447 1448 1449 1450 1451 1452 1453 1454 1455 1455 1456 1457 1457 1458 1459 1460 1461 1462 1462 1463 1463 1463 1464 1464
1455 1453 1452 1451 1450 1449 1449 1448 1448 1447 1447 1446 1445 1445 1444 1443 1443 1443 1444 1444 1445 1446 1446 1448 1448 1449 1450 1451 1452 1452 1453 1453 1454 1455 1456 1457 1457 1458 1458 1458 1458 1458 1459
1452 1451 1449 1448 1447 1446 1446 1445 1445 1444 1444 1443 1442 1441 1441 1440 1440 1440 1441 1441 1442 1442 1443 1444 1445 1446 1446 1447 1448 1448 1449 1449 1450 1451 1452 1452 1453 1454 1454 1454 1454 1454 1454
1449 1447 1446 1445 1444 1444 1443 1443 1442 1441 1441 1440 1440 1439 1439 1438 1438 1438 1438 1438 1439 1439 1440 1441 1442 1442 1443 1443 1444 1445 1445 1446 1446 1447 1447 1448 1449 1450 1450 1450 1450 1450 1450
1445 1444 1443 1442 1441 1441 1441 1440 1439 1439 1439 1438 1438 1437 1436 1436 1436 1435 1435 1436 1436 1437 1437 1438 1439 1439 1440 1440 1441 1442 1442 1442 1442 1442 1443 1444 1444 1445 1445 1446 1446 1446 1446
1442 1441 1440 1439 1439 1439 1438 1437 1437 1437 1437 1436 1435 1435 1434 1434 1434 1433 1433 1434 1434 1434 1434 1435 1436 1437 1437 1438 1438 1438 1439 1439 1439 1438 1439 1440 1441 1441 1442 1442 1442 1443 1443
1440 1439 1438 1437 1436 1436 1436 1435 1434 1435 1434 1434 1433 1433 1432 1432 1432 1432 1431 1431 1432 1432 1432 1433 1433 1434 1434 1435 1435 1435 1436 1436 1436 1435 1436 1437 1437 1438 1438 1438 1439 1439 1439
1437 1436 1435 1434 1433 1433 1433 1433 1432 1432 1432 1431 1431 1431 1430 1430 1430 1430 1430 1430 1429 1430 1430 1430 1431 1431 1432 1432 1432 1433 1433 1433 1433 1433 1433 1434 1434 1434 1435 1435 1435 1435 1436
1434 1433 1432 1431 1430 1430 1430 1430 1430 1430 1429 1429 1429 1429 1428 1428 1428 1428 1428 1428 1428 1428 1428 1429 1429 1429 1429 1430 1430 1430 1430 1430 1430 1431 1431 1431 1431 1431 1431 1432 1432 1432 1432
1431 1430 1429 1429 1428 1428 1427 1427 1427 1427 1427 1426 1426 1426 1426 1426 1426 1427 1427 1426 1427 1426 1427 1427 1427 1427 1428 1428 1428 1428 1428 1428 1428 1428 1428 1428 1429 1429 1429 1429 1429 1429 1429